When you browse on this site, cookies collect data to enhance your experience and personalize the content and advertising you see.
Visit our Privacy Policy to learn more. By continuing to use the site, you agree to this use of cookies and data.
  • In Deutschland
  • Länderverzeichnis
  • Für 7 Tage
  • Wassertemperatur
  • Wetterkarte
  • Widgets
  • user-avatar
    Anmelden

    Stündliche Wetter Visimo-Utkinsk

    Heute, 16 Oktober, Mittwoch

    Zeit Temperatur Niederschläge Wind Luftdruck Luftfeuchtigkeit
    00:00 0°C° 0 mm 3 m/S 728 mmHg 94%
    01:00 0°C° 0 mm 3 m/S 728 mmHg 94%
    02:00 0°C° 0 mm 3 m/S 729 mmHg 93%
    03:00 -1°C° 0 mm 4 m/S 729 mmHg 91%
    04:00 -1°C° 0 mm 4 m/S 729 mmHg 90%
    05:00 -1°C° 0.2 mm 4 m/S 730 mmHg 92%
    06:00 -1°C° 0.2 mm 4 m/S 730 mmHg 94%
    07:00 -1°C° 0.2 mm 4 m/S 730 mmHg 96%
    08:00 -1°C° 0.1 mm 4 m/S 731 mmHg 92%
    09:00 -1°C° 0.1 mm 4 m/S 731 mmHg 88%
    10:00 -1°C° 0.1 mm 5 m/S 732 mmHg 84%
    11:00 0°C° 0.1 mm 5 m/S 732 mmHg 82%
    12:00 0°C° 0.1 mm 5 m/S 733 mmHg 81%
    13:00 0°C° 0.1 mm 5 m/S 733 mmHg 79%
    14:00 0°C° 0 mm 5 m/S 734 mmHg 80%
    15:00 -1°C° 0 mm 5 m/S 734 mmHg 81%
    16:00 -1°C° 0 mm 5 m/S 735 mmHg 83%
    17:00 -1°C° 0.1 mm 5 m/S 735 mmHg 83%
    18:00 -2°C° 0.1 mm 5 m/S 736 mmHg 84%
    19:00 -2°C° 0.1 mm 5 m/S 736 mmHg 85%
    20:00 -3°C° 0 mm 4 m/S 737 mmHg 85%
    21:00 -3°C° 0 mm 4 m/S 737 mmHg 85%
    22:00 -3°C° 0 mm 4 m/S 737 mmHg 85%
    23:00 -3°C° 0 mm 4 m/S 738 mmHg 85%

    Morgen, 17 Oktober, Donnerstag

    Zeit Temperatur Niederschläge Wind Luftdruck Luftfeuchtigkeit
    00:00 -3°C° 0 mm 4 m/S 738 mmHg 84%
    01:00 -3°C° 0 mm 4 m/S 738 mmHg 84%
    02:00 -3°C° 0 mm 4 m/S 739 mmHg 83%
    03:00 -3°C° 0 mm 4 m/S 739 mmHg 83%
    04:00 -3°C° 0 mm 4 m/S 739 mmHg 83%
    05:00 -3°C° 0 mm 4 m/S 740 mmHg 83%
    06:00 -3°C° 0 mm 4 m/S 740 mmHg 84%
    07:00 -3°C° 0 mm 4 m/S 740 mmHg 84%
    08:00 -3°C° 0 mm 4 m/S 740 mmHg 81%
    09:00 -2°C° 0 mm 3 m/S 740 mmHg 79%
    10:00 -1°C° 0 mm 3 m/S 740 mmHg 76%
    11:00 -1°C° 0 mm 3 m/S 740 mmHg 75%
    12:00 -1°C° 0 mm 3 m/S 740 mmHg 74%
    13:00 0°C° 0 mm 3 m/S 740 mmHg 73%
    14:00 -1°C° 0 mm 3 m/S 740 mmHg 74%
    15:00 -1°C° 0 mm 3 m/S 739 mmHg 75%
    16:00 -1°C° 0 mm 3 m/S 739 mmHg 77%
    17:00 -1°C° 0.1 mm 2 m/S 739 mmHg 83%
    18:00 -2°C° 0.1 mm 2 m/S 739 mmHg 89%
    19:00 -2°C° 0.1 mm 2 m/S 738 mmHg 95%
    20:00 -2°C° 0.5 mm 2 m/S 738 mmHg 96%
    21:00 -2°C° 0.5 mm 2 m/S 737 mmHg 96%
    22:00 -2°C° 0.5 mm 2 m/S 737 mmHg 96%
    23:00 -2°C° 0.6 mm 2 m/S 736 mmHg 96%

    übermorgen, 18 Oktober, Freitag

    Zeit Temperatur Niederschläge Wind Luftdruck Luftfeuchtigkeit
    00:00 -2°C° 0.6 mm 2 m/S 735 mmHg 97%
    01:00 -2°C° 0.6 mm 2 m/S 735 mmHg 97%
    02:00 0°C° 0.4 mm 1 m/S 734 mmHg 97%
    03:00 0°C° 0.4 mm 1 m/S 734 mmHg 97%
    04:00 0°C° 0.4 mm 1 m/S 733 mmHg 97%
    05:00 0°C° 0.3 mm 1 m/S 733 mmHg 97%
    06:00 0°C° 0.3 mm 1 m/S 733 mmHg 97%
    07:00 0°C° 0.3 mm 1 m/S 732 mmHg 97%
    08:00 -2°C° 0.3 mm 2 m/S 732 mmHg 96%
    09:00 -1°C° 0.3 mm 2 m/S 733 mmHg 95%
    10:00 0°C° 0.3 mm 3 m/S 733 mmHg 93%
    11:00 0°C° 0.3 mm 3 m/S 733 mmHg 92%
    12:00 -1°C° 0.3 mm 4 m/S 734 mmHg 92%
    13:00 -1°C° 0.3 mm 5 m/S 734 mmHg 91%
    14:00 -2°C° 0.1 mm 4 m/S 735 mmHg 89%
    15:00 -2°C° 0.1 mm 4 m/S 735 mmHg 87%
    16:00 -2°C° 0.1 mm 4 m/S 736 mmHg 86%
    17:00 -3°C° 0.1 mm 4 m/S 737 mmHg 88%
    18:00 -3°C° 0.1 mm 4 m/S 737 mmHg 90%
    19:00 -4°C° 0.1 mm 4 m/S 738 mmHg 92%
    20:00 -4°C° 0.1 mm 4 m/S 739 mmHg 90%
    21:00 -5°C° 0.1 mm 4 m/S 739 mmHg 89%
    22:00 -5°C° 0.1 mm 4 m/S 740 mmHg 87%
    23:00 -6°C° 0 mm 3 m/S 740 mmHg 88%

    19 Oktober, Samstag

    Zeit Temperatur Niederschläge Wind Luftdruck Luftfeuchtigkeit
    00:00 -6°C° 0 mm 3 m/S 741 mmHg 89%
    01:00 -6°C° 0 mm 2 m/S 741 mmHg 90%
    02:00 -6°C° 0 mm 2 m/S 742 mmHg 92%
    03:00 -7°C° 0 mm 2 m/S 742 mmHg 94%
    04:00 -8°C° 0 mm 2 m/S 743 mmHg 96%
    05:00 -8°C° 0 mm 2 m/S 743 mmHg 96%
    06:00 -7°C° 0 mm 1 m/S 743 mmHg 96%
    07:00 -7°C° 0 mm 1 m/S 744 mmHg 96%
    08:00 -6°C° 0 mm 1 m/S 744 mmHg 89%
    09:00 -3°C° 0 mm 1 m/S 745 mmHg 83%
    10:00 -4°C° 0 mm 2 m/S 745 mmHg 76%
    11:00 -1°C° 0 mm 1 m/S 745 mmHg 72%
    12:00 0°C° 0 mm 1 m/S 745 mmHg 68%
    13:00 0°C° 0 mm 1 m/S 745 mmHg 63%
    14:00 0°C° 0 mm 1 m/S 745 mmHg 66%
    15:00 -2°C° 0 mm 0 m/S 745 mmHg 69%
    16:00 -2°C° 0 mm 0 m/S 745 mmHg 73%
    17:00 -3°C° 0 mm 0 m/S 746 mmHg 76%
    18:00 -3°C° 0 mm 1 m/S 746 mmHg 80%
    19:00 -4°C° 0 mm 1 m/S 746 mmHg 83%
    20:00 -4°C° 0 mm 1 m/S 746 mmHg 85%
    21:00 -4°C° 0 mm 1 m/S 746 mmHg 86%
    22:00 -4°C° 0 mm 1 m/S 746 mmHg 88%
    23:00 -6°C° 0 mm 1 m/S 746 mmHg 88%

    20 Oktober, Sonntag

    Zeit Temperatur Niederschläge Wind Luftdruck Luftfeuchtigkeit
    00:00 -6°C° 0 mm 1 m/S 746 mmHg 89%
    01:00 -6°C° 0 mm 1 m/S 746 mmHg 90%
    02:00 -6°C° 0 mm 1 m/S 746 mmHg 90%
    03:00 -6°C° 0 mm 1 m/S 746 mmHg 90%
    04:00 -6°C° 0 mm 1 m/S 746 mmHg 90%
    05:00 -6°C° 0 mm 1 m/S 746 mmHg 89%
    06:00 -7°C° 0 mm 2 m/S 745 mmHg 87%
    07:00 -7°C° 0 mm 2 m/S 745 mmHg 86%
    08:00 -5°C° 0 mm 2 m/S 745 mmHg 83%
    09:00 -5°C° 0 mm 3 m/S 745 mmHg 79%
    10:00 -4°C° 0 mm 3 m/S 745 mmHg 76%
    11:00 -2°C° 0 mm 3 m/S 745 mmHg 76%
    12:00 -2°C° 0 mm 4 m/S 744 mmHg 76%
    13:00 -1°C° 0 mm 4 m/S 744 mmHg 76%
    14:00 -1°C° 0 mm 4 m/S 743 mmHg 76%
    15:00 -1°C° 0 mm 4 m/S 743 mmHg 75%
    16:00 -2°C° 0 mm 4 m/S 743 mmHg 75%
    17:00 -2°C° 0 mm 5 m/S 742 mmHg 76%
    18:00 -2°C° 0 mm 5 m/S 742 mmHg 78%
    19:00 -4°C° 0 mm 5 m/S 741 mmHg 79%
    20:00 -4°C° 0 mm 5 m/S 741 mmHg 81%
    21:00 -3°C° 0 mm 6 m/S 741 mmHg 83%
    22:00 -3°C° 0 mm 6 m/S 740 mmHg 85%
    23:00 -3°C° 0.2 mm 6 m/S 740 mmHg 88%

    21 Oktober, Montag

    Zeit Temperatur Niederschläge Wind Luftdruck Luftfeuchtigkeit
    00:00 -3°C° 0.2 mm 6 m/S 740 mmHg 91%
    01:00 -1°C° 0.2 mm 5 m/S 739 mmHg 94%
    02:00 -1°C° 0.2 mm 5 m/S 739 mmHg 95%
    03:00 -1°C° 0.2 mm 5 m/S 739 mmHg 95%
    04:00 -1°C° 0.2 mm 4 m/S 739 mmHg 95%
    05:00 0°C° 0.2 mm 4 m/S 739 mmHg 96%
    06:00 0°C° 0.2 mm 4 m/S 739 mmHg 96%
    07:00 +1°C° 0.2 mm 3 m/S 738 mmHg 96%
    08:00 +1°C° 0.1 mm 3 m/S 738 mmHg 96%
    09:00 +1°C° 0.1 mm 3 m/S 738 mmHg 97%
    10:00 +2°C° 0.1 mm 2 m/S 738 mmHg 97%
    11:00 +2°C° 0.2 mm 2 m/S 739 mmHg 97%
    12:00 +2°C° 0.2 mm 2 m/S 739 mmHg 98%
    13:00 +3°C° 0.2 mm 1 m/S 739 mmHg 98%
    14:00 +3°C° 0 mm 1 m/S 739 mmHg 98%
    15:00 +3°C° 0 mm 1 m/S 740 mmHg 98%
    16:00 +3°C° 0 mm 1 m/S 740 mmHg 98%
    17:00 +3°C° 0 mm 1 m/S 740 mmHg 98%
    18:00 +3°C° 0 mm 1 m/S 740 mmHg 98%
    19:00 +2°C° 0 mm 0 m/S 741 mmHg 98%
    20:00 +2°C° 0 mm 0 m/S 741 mmHg 98%
    21:00 +2°C° 0 mm 0 m/S 741 mmHg 98%
    22:00 +2°C° 0 mm 0 m/S 741 mmHg 98%
    23:00 +3°C° 0 mm 1 m/S 741 mmHg 98%
    Mehr zeigen